Regional Weather Roundup
Issued by NWS

Home | Current Version | Previous Version | Graphics & Text | Print | Product List | Glossary On
Versions: 1 2 3 4 5 6 7 8 9 10 11 12 13 14 15 16 17 18 19 20 21 22 23 24 25 26 27 28
000
ASUS45 KCYS 200510
RWRWY

WYOMING REGIONAL WEATHER ROUNDUP
NATIONAL WEATHER SERVICE CHEYENNE WY
1100 PM MDT SAT AUG 19 2017

NOTE:  "FAIR" INDICATES FEW OR NO CLOUDS BELOW 12,000 FEET
WITH NO SIGNIFICANT WEATHER AND/OR OBSTRUCTIONS TO VISIBILITY.

WYZ001-200600-
YELLOWSTONE NATIONAL PARK

CITY           SKY/WX    TMP DP  RH WIND       PRES   REMARKS
LK YELLOWSTONE   N/A     45  36  70 NW3       30.23F
W YELLOWSTONE  NOT AVBL

$$
WYZ002>013-054>058-071-098>099-200600-
NORTHERN WYOMING

CITY           SKY/WX    TMP DP  RH WIND       PRES   REMARKS
JACKSON        FAIR      50  31  48 NE7       30.14F
CODY           FAIR      66  33  29 S3        30.04R
GREYBULL       FAIR      74  31  20 NW12      29.90S
WORLAND        FAIR      70  36  28 SW5       29.95R
SHERIDAN       FAIR      59  42  53 S3        30.01R
BUFFALO        FAIR      69  31  24 NE8       30.07R
GILLETTE       FAIR      70  38  31 N12       30.00R
HULETT         FAIR      70  37  30 E15G24    29.99F
NEWCASTLE      FAIR      75  32  20 E16G23    29.94R

$$
WYZ014>020-022>026-101>103-200600-
CENTRAL WYOMING

CITY           SKY/WX    TMP DP  RH WIND       PRES   REMARKS
BIG PINEY      FAIR      52  30  43 N5        30.22S
PINEDALE       FAIR      50  32  50 CALM      30.22F
DUBOIS         FAIR      54  21  28 CALM      30.20S
LANDER           N/A    N/A N/A N/A MISG      30.08R
RIVERTON       FAIR      68  23  18 NW12      30.06S
CASPER         FAIR      63  34  33 NW12      30.02R HAZE
DOUGLAS        FAIR      62  40  44 SE10      29.98F

$$
WYZ021-027>030-104>119-200600-
SOUTHERN WYOMING

CITY           SKY/WX    TMP DP  RH WIND       PRES   REMARKS
EVANSTON       FAIR      66  31  27 SE6       30.22S
FORT BRIDGER   FAIR      64  32  30 S12       30.25S
ROCK SPRINGS   FAIR      67  32  27 SW10      30.19F
RAWLINS        FAIR      67  20  16 W8        30.17S
SARATOGA       FAIR      55  34  44 SE10      30.21S
LARAMIE        FAIR      54  31  41 S10       30.21R
CHEYENNE       FAIR      62  31  31 W9        30.11F
TORRINGTON     FAIR      63  45  51 E3        29.94S
PINE BLUFFS    FAIR      54  37  54 W9        30.05R

$$




USA.gov is the U.S. government's official web portal to all federal, state and local government web resources and services.